Météo par heure à Dzhuno

Ce jour, 20 Juin, Dimanche

Heure Température Précipitation Vent Pression Humidité
00:00 +11°C° 0 mm 1 m/s 727 mmHg 79%
01:00 +11°C° 0 mm 1 m/s 727 mmHg 79%
02:00 +11°C° 0 mm 1 m/s 726 mmHg 78%
03:00 +12°C° 0 mm 2 m/s 726 mmHg 78%
04:00 +12°C° 0 mm 1 m/s 726 mmHg 78%
05:00 +12°C° 0 mm 1 m/s 726 mmHg 78%
06:00 +12°C° 0 mm 1 m/s 726 mmHg 78%
07:00 +12°C° 0 mm 1 m/s 726 mmHg 78%
08:00 +13°C° 0 mm 2 m/s 726 mmHg 78%
09:00 +13°C° 0 mm 2 m/s 726 mmHg 78%
10:00 +12°C° 0 mm 2 m/s 726 mmHg 80%
11:00 +12°C° 0 mm 2 m/s 726 mmHg 83%
12:00 +12°C° 0 mm 2 m/s 726 mmHg 85%
13:00 +12°C° 0.6 mm 2 m/s 726 mmHg 89%
14:00 +10°C° 0.6 mm 2 m/s 725 mmHg 93%
15:00 +11°C° 0.6 mm 1 m/s 725 mmHg 96%
16:00 +11°C° 2 mm 1 m/s 725 mmHg 97%
17:00 +11°C° 2 mm 1 m/s 725 mmHg 98%
18:00 +11°C° 2 mm 1 m/s 724 mmHg 98%
19:00 +11°C° 1.6 mm 1 m/s 724 mmHg 98%
20:00 +11°C° 1.6 mm 1 m/s 724 mmHg 98%
21:00 +11°C° 1.6 mm 1 m/s 724 mmHg 98%
22:00 +11°C° 0.4 mm 1 m/s 724 mmHg 99%
23:00 +10°C° 0.4 mm 2 m/s 723 mmHg 99%

Demain, 21 Juin, Lundi

Heure Température Précipitation Vent Pression Humidité
00:00 +10°C° 0.4 mm 2 m/s 723 mmHg 99%
01:00 +10°C° 0.4 mm 2 m/s 723 mmHg 99%
02:00 +10°C° 0.4 mm 2 m/s 723 mmHg 99%
03:00 +10°C° 0.4 mm 2 m/s 723 mmHg 99%
04:00 +9°C° 0.3 mm 2 m/s 723 mmHg 98%
05:00 +9°C° 0.3 mm 2 m/s 723 mmHg 98%
06:00 +9°C° 0.3 mm 2 m/s 723 mmHg 98%
07:00 +9°C° 0.4 mm 2 m/s 723 mmHg 98%
08:00 +9°C° 0.4 mm 2 m/s 723 mmHg 97%
09:00 +9°C° 0.4 mm 2 m/s 723 mmHg 96%
10:00 +9°C° 0.4 mm 2 m/s 723 mmHg 96%
11:00 +9°C° 0.4 mm 2 m/s 723 mmHg 95%
12:00 +9°C° 0.4 mm 2 m/s 724 mmHg 94%
13:00 +9°C° 0.3 mm 2 m/s 724 mmHg 95%
14:00 +9°C° 0.3 mm 2 m/s 724 mmHg 95%
15:00 +10°C° 0.3 mm 1 m/s 724 mmHg 96%
16:00 +9°C° 0.2 mm 1 m/s 724 mmHg 95%
17:00 +9°C° 0.2 mm 1 m/s 723 mmHg 95%
18:00 +9°C° 0.2 mm 1 m/s 723 mmHg 95%
19:00 +9°C° 0.1 mm 1 m/s 723 mmHg 95%
20:00 +9°C° 0.1 mm 1 m/s 723 mmHg 95%
21:00 +9°C° 0.1 mm 1 m/s 723 mmHg 96%
22:00 +9°C° 0 mm 1 m/s 723 mmHg 96%
23:00 +8°C° 0 mm 1 m/s 723 mmHg 96%

Après-demain, 22 Juin, Mardi

Heure Température Précipitation Vent Pression Humidité
00:00 +8°C° 0 mm 1 m/s 723 mmHg 96%
01:00 +8°C° 0 mm 1 m/s 723 mmHg 96%
02:00 +7°C° 0 mm 0 m/s 722 mmHg 97%
03:00 +7°C° 0 mm 0 m/s 722 mmHg 97%
04:00 +7°C° 0 mm 0 m/s 722 mmHg 96%
05:00 +8°C° 0 mm 0 m/s 722 mmHg 96%
06:00 +9°C° 0 mm 1 m/s 722 mmHg 95%
07:00 +9°C° 0.1 mm 1 m/s 722 mmHg 94%
08:00 +9°C° 0.1 mm 1 m/s 722 mmHg 92%
09:00 +10°C° 0.1 mm 1 m/s 722 mmHg 90%
10:00 +10°C° 0.1 mm 1 m/s 722 mmHg 88%
11:00 +11°C° 0.1 mm 1 m/s 722 mmHg 85%
12:00 +11°C° 0.1 mm 1 m/s 722 mmHg 83%
13:00 +11°C° 0.1 mm 1 m/s 722 mmHg 82%
14:00 +12°C° 0.1 mm 1 m/s 722 mmHg 81%
15:00 +12°C° 0.1 mm 1 m/s 722 mmHg 80%
16:00 +11°C° 0.1 mm 1 m/s 722 mmHg 81%
17:00 +11°C° 0.1 mm 1 m/s 722 mmHg 83%
18:00 +11°C° 0.1 mm 1 m/s 722 mmHg 84%
19:00 +10°C° 0 mm 1 m/s 721 mmHg 87%
20:00 +9°C° 0 mm 1 m/s 721 mmHg 90%
21:00 +9°C° 0 mm 1 m/s 721 mmHg 93%
22:00 +9°C° 0 mm 1 m/s 721 mmHg 91%
23:00 +8°C° 0 mm 1 m/s 721 mmHg 90%

23 Juin, Mercredi

Heure Température Précipitation Vent Pression Humidité
00:00 +8°C° 0 mm 1 m/s 722 mmHg 89%
01:00 +8°C° 0 mm 1 m/s 721 mmHg 89%
02:00 +8°C° 0 mm 1 m/s 721 mmHg 89%
03:00 +8°C° 0 mm 1 m/s 721 mmHg 89%
04:00 +8°C° 0 mm 1 m/s 721 mmHg 88%
05:00 +9°C° 0 mm 1 m/s 721 mmHg 87%
06:00 +10°C° 0 mm 1 m/s 721 mmHg 86%
07:00 +10°C° 0 mm 1 m/s 721 mmHg 83%
08:00 +11°C° 0 mm 1 m/s 721 mmHg 81%
09:00 +12°C° 0 mm 1 m/s 721 mmHg 78%
10:00 +12°C° 0 mm 1 m/s 721 mmHg 76%
11:00 +12°C° 0 mm 2 m/s 721 mmHg 75%
12:00 +13°C° 0 mm 2 m/s 721 mmHg 74%
13:00 +12°C° 0.1 mm 2 m/s 720 mmHg 79%
14:00 +10°C° 0.1 mm 2 m/s 720 mmHg 84%
15:00 +9°C° 0.1 mm 2 m/s 720 mmHg 90%
16:00 +10°C° 0.9 mm 1 m/s 720 mmHg 92%
17:00 +10°C° 0.9 mm 1 m/s 720 mmHg 95%
18:00 +10°C° 0.9 mm 1 m/s 720 mmHg 97%
19:00 +10°C° 1.8 mm 1 m/s 720 mmHg 97%
20:00 +10°C° 1.8 mm 1 m/s 720 mmHg 98%
21:00 +10°C° 1.8 mm 1 m/s 720 mmHg 98%
22:00 +9°C° 1.9 mm 2 m/s 720 mmHg 98%
23:00 +9°C° 1.9 mm 2 m/s 719 mmHg 98%

24 Juin, Jeudi

Heure Température Précipitation Vent Pression Humidité
00:00 +10°C° 1.9 mm 2 m/s 719 mmHg 98%
01:00 +10°C° 2.3 mm 2 m/s 719 mmHg 98%
02:00 +10°C° 2.3 mm 2 m/s 718 mmHg 98%
03:00 +11°C° 2.3 mm 1 m/s 718 mmHg 98%
04:00 +10°C° 2.6 mm 2 m/s 718 mmHg 98%
05:00 +10°C° 2.6 mm 2 m/s 719 mmHg 98%
06:00 +10°C° 2.6 mm 2 m/s 719 mmHg 98%
07:00 +10°C° 1.7 mm 2 m/s 719 mmHg 98%
08:00 +10°C° 1.7 mm 2 m/s 719 mmHg 98%
09:00 +10°C° 1.7 mm 2 m/s 719 mmHg 98%
10:00 +10°C° 1 mm 2 m/s 720 mmHg 98%
11:00 +10°C° 1 mm 2 m/s 720 mmHg 98%
12:00 +10°C° 1 mm 2 m/s 721 mmHg 98%
13:00 +10°C° 0.8 mm 2 m/s 721 mmHg 98%
14:00 +10°C° 0.8 mm 2 m/s 721 mmHg 98%
15:00 +10°C° 0.8 mm 2 m/s 721 mmHg 98%
16:00 +10°C° 0.9 mm 2 m/s 721 mmHg 98%
17:00 +10°C° 0.9 mm 2 m/s 721 mmHg 98%
18:00 +12°C° 0.9 mm 2 m/s 721 mmHg 98%
19:00 +10°C° 0.5 mm 2 m/s 721 mmHg 98%
20:00 +10°C° 0.5 mm 3 m/s 721 mmHg 98%
21:00 +10°C° 0.5 mm 3 m/s 722 mmHg 98%
22:00 +10°C° 0.5 mm 3 m/s 722 mmHg 98%
23:00 +10°C° 0.5 mm 3 m/s 723 mmHg 98%

25 Juin, Vendredi

Heure Température Précipitation Vent Pression Humidité
00:00 +10°C° 0.5 mm 3 m/s 723 mmHg 98%
01:00 +10°C° 0.7 mm 3 m/s 724 mmHg 98%
02:00 +10°C° 0.7 mm 3 m/s 724 mmHg 98%
03:00 +10°C° 0.7 mm 3 m/s 724 mmHg 99%
04:00 +10°C° 1.2 mm 3 m/s 725 mmHg 98%
05:00 +10°C° 1.2 mm 3 m/s 725 mmHg 98%
06:00 +10°C° 1.2 mm 3 m/s 726 mmHg 98%
07:00 +10°C° 0.5 mm 3 m/s 726 mmHg 94%
08:00 +10°C° 0.5 mm 3 m/s 727 mmHg 90%
09:00 +11°C° 0.5 mm 4 m/s 728 mmHg 86%
10:00 +11°C° 0.3 mm 3 m/s 729 mmHg 82%
11:00 +12°C° 0.3 mm 3 m/s 729 mmHg 78%
12:00 +12°C° 0.3 mm 3 m/s 730 mmHg 74%
13:00 +12°C° 0.2 mm 3 m/s 730 mmHg 73%
14:00 +12°C° 0.2 mm 3 m/s 730 mmHg 72%
15:00 +12°C° 0.2 mm 3 m/s 730 mmHg 71%
16:00 +13°C° 0.1 mm 2 m/s 730 mmHg 73%
17:00 +12°C° 0.1 mm 2 m/s 730 mmHg 74%
18:00 +12°C° 0.1 mm 2 m/s 731 mmHg 76%
19:00 +10°C° 0 mm 2 m/s 731 mmHg 80%
20:00 +9°C° 0 mm 2 m/s 731 mmHg 84%
21:00 +8°C° 0 mm 2 m/s 731 mmHg 88%
22:00 +9°C° 0 mm 1 m/s 731 mmHg 87%
23:00 +9°C° 0 mm 1 m/s 731 mmHg 86%
Voir plus

Nous avons besoin de votre consentement

Meteoprog et ses fournisseurs de services peuvent stocker et accéder à des données personnelles telles que des cookies, des identifiants d'appareils ou d'autres technologies similaires sur votre appareil et traiter ces données pour personnaliser le contenu et les publicités, ainsi que pour fournir des fonctionnalités de médias sociaux et analyser le trafic.

  • Stocker et/ou accéder à des informations sur votre appareil

    Des cookies, des identifiants d'appareils ou d'autres informations peuvent être stockés ou accessibles sur votre appareil aux fins indiquées ci-dessus.

  • Annonces et contenus personnalisés, mesure des annonces et des contenus, connaissance de l'audience et développement de produits

    Les annonces et le contenu peuvent être personnalisés en fonction d'un profil. D'autres données peuvent être ajoutées pour mieux personnaliser les annonces et le contenu. Les performances des publicités et du contenu peuvent être mesurées. Il est possible d'obtenir des informations sur le public qui a vu les publicités et le contenu. Ces données peuvent être utilisées pour développer ou améliorer l'expérience de l'utilisateur, les systèmes et les logiciels.

En cliquant sur "J'accepte", vous autorisez l'utilisation de cookies, des identifiants d'appareils, des balises web ou d'autres technologies similaires. Vos paramètres peuvent être modifiés dans le navigateur de votre appareil.

Dans certains cas, des intérêts légitimes peuvent être invoqués plutôt qu'un consentement. Vous pouvez en savoir plus à ce sujet dans notre Politique de confidentialité et de cookies.